Theta_e
309 309 309 310 310 311 311 311 310 310 310 311 312 312 313 313 312 312 312 312 312 312 312 314 314 314 315 315 316 318 323 327 328 339 340 343 342 341 341 343 347 345 348 348 341
308 309 310 310 309 310 311 311 311 310 310 311 312 312 313 313 312 312 313 315 313 312 312 314 313 314 314 314 315 319 323 325 324 332 341 343 341 341 342 342 346 350 349 346 341
309 309 309 310 310 310 311 311 311 310 310 311 312 312 313 312 311 318 318 317 317 312 312 312 313 314 315 314 315 317 322 322 327 334 342 342 342 341 342 343 345 349 348 346 346
309 309 309 310 310 310 311 311 310 310 310 312 312 312 313 312 314 321 318 317 316 313 314 314 314 314 316 316 315 318 319 332 343 340 341 342 341 338 339 338 341 344 346 347 347
309 309 309 310 310 310 310 310 310 310 311 311 311 313 313 311 312 313 316 318 315 313 314 315 313 314 317 316 314 316 328 343 342 340 340 341 339 336 333 332 336 342 343 344 346
309 309 309 310 310 310 310 310 310 311 311 311 312 313 312 312 312 316 319 318 313 312 313 314 313 315 314 315 316 320 342 342 342 339 336 339 334 336 329 331 333 337 341 342 343
309 309 309 310 310 310 310 310 311 311 311 312 313 312 311 313 312 314 318 318 316 314 314 314 313 314 314 321 334 340 343 343 340 339 336 336 339 338 329 330 332 333 337 339 340
309 309 309 310 311 310 310 311 312 312 312 312 312 311 312 314 315 313 317 318 321 317 316 314 314 313 318 330 337 339 342 337 342 340 336 338 344 332 328 330 330 330 329 334 334
309 310 309 310 310 310 311 311 313 313 314 313 313 313 317 318 321 321 315 319 321 321 315 316 313 315 318 332 338 335 333 341 347 339 339 340 345 331 327 330 330 328 327 326 329
309 310 309 310 310 310 311 312 315 318 320 318 317 316 317 319 320 321 319 319 320 321 316 316 316 318 316 321 321 329 333 340 342 344 339 342 341 328 327 330 330 327 325 323 322
310 310 310 311 310 311 315 316 320 320 318 319 319 320 320 319 321 320 319 318 318 318 319 316 318 319 319 318 317 323 332 332 335 340 342 342 344 330 327 328 328 326 324 323 321
310 311 310 311 311 316 320 319 319 318 318 320 320 319 320 320 321 321 319 319 318 319 317 318 319 319 317 316 316 318 325 324 331 339 343 344 342 337 327 328 329 327 325 323 321
310 311 310 311 313 320 320 319 318 315 318 320 320 321 321 319 321 321 318 317 318 319 319 319 319 317 318 316 318 318 319 321 323 328 339 338 344 339 329 328 327 326 325 323 321
310 311 310 311 318 323 320 318 320 320 324 324 322 321 321 320 321 321 320 318 317 319 318 319 319 319 319 320 320 323 319 320 320 323 322 333 332 332 337 329 325 325 323 323 320
310 310 310 311 321 320 318 318 320 320 329 324 322 322 322 321 321 322 321 318 319 319 319 320 321 321 322 323 322 323 321 320 320 323 323 328 329 326 327 332 330 326 323 321 319
310 310 311 312 319 319 318 319 320 325 326 324 321 321 323 323 324 326 319 317 316 318 319 320 318 320 321 321 321 321 320 319 320 323 324 324 328 325 329 330 330 329 323 319 318
312 311 311 312 318 319 316 321 324 325 323 323 322 321 323 323 323 325 326 323 321 320 321 320 320 319 319 320 320 320 321 322 322 323 323 323 325 325 326 324 326 328 322 318 316
313 311 311 314 316 317 318 323 326 322 323 322 320 320 322 322 322 322 325 329 325 323 320 321 325 321 323 319 322 320 322 323 323 323 322 323 324 326 317 317 317 318 320 317 316
318 318 317 318 320 320 319 323 320 319 320 322 321 323 323 322 321 322 325 323 323 322 328 327 326 325 325 325 324 323 324 321 325 322 323 324 323 318 319 318 317 318 317 316 315
319 320 319 320 321 321 322 320 319 316 319 320 323 321 323 321 322 322 323 319 319 319 319 325 327 325 325 324 325 327 325 328 323 328 328 325 325 325 326 320 316 316 316 315 314
320 319 319 321 321 320 323 321 318 315 317 318 319 320 318 319 320 321 323 318 316 317 320 321 326 324 325 324 326 328 329 328 329 329 330 330 328 325 321 318 317 315 314 314 313
319 320 320 321 320 316 317 316 314 315 314 315 316 317 316 317 318 320 321 320 313 314 318 319 322 327 325 325 326 327 329 329 332 331 331 330 330 318 315 315 315 312 312 313 312
317 316 317 320 323 318 315 314 314 315 315 315 314 315 315 317 314 316 316 314 314 314 315 317 322 325 324 326 324 328 326 329 330 330 331 333 330 313 311 312 313 312 312 311 310
319 320 314 313 311 316 314 313 311 313 314 313 314 314 315 314 315 315 315 314 314 314 317 319 320 322 326 323 320 324 318 318 327 332 330 330 329 324 315 314 311 311 311 309 309
315 313 311 314 311 312 313 312 311 311 314 314 314 315 315 315 315 315 314 314 313 313 314 316 317 315 316 319 316 317 316 315 317 324 329 326 322 320 318 317 313 311 310 309 308
314 311 309 309 310 310 310 312 310 311 314 315 315 315 314 315 314 314 314 314 314 314 315 313 316 315 317 315 316 315 318 317 315 313 315 315 318 312 313 315 311 311 310 309 308
312 311 309 309 310 310 312 312 311 311 311 315 314 315 314 313 313 312 312 313 313 315 317 317 317 317 316 315 316 318 315 311 309 308 307 315 312 310 313 312 311 310 309 308 307
Wind_Speed
12 12 12 12 12 12 12 12 12 12 11 11 11 11 13 13 13 16 16 7 7 11 14 11 7 9 12 11 8 7 4 7 6 7 4 9 8 3 7 10 6 4 5 18 20
12 12 12 12 12 12 12 11 11 11 11 11 11 11 11 13 14 15 6 4 8 10 13 17 10 9 6 6 6 6 8 11 6 9 6 11 10 11 7 12 8 15 17 20 20
13 12 12 11 11 11 11 11 11 10 11 10 10 10 10 12 11 3 4 1 5 12 10 17 11 9 6 5 7 6 10 9 5 9 9 13 11 6 15 7 9 20 24 23 24
13 12 11 11 10 10 10 10 10 10 10 10 9 9 9 8 1 4 2 5 6 16 14 14 11 8 6 7 6 5 8 5 2 9 10 10 13 9 3 4 12 21 24 27 25
14 13 11 11 10 9 10 9 9 9 10 10 9 8 8 5 5 6 4 1 4 18 16 12 11 6 6 5 6 5 2 2 2 8 10 13 6 8 8 10 16 21 23 25 25
14 13 11 10 9 8 9 9 9 10 10 10 9 8 8 5 2 1 3 5 4 12 14 11 6 6 4 3 5 0 3 6 6 10 5 11 5 4 7 12 15 18 21 21 23
13 12 10 9 9 8 9 9 10 10 9 9 8 9 11 9 3 5 3 5 4 5 8 9 3 2 1 4 5 5 4 6 6 6 3 11 4 4 15 15 16 16 19 20 21
13 12 10 9 9 9 8 9 9 8 8 9 8 9 6 3 2 6 7 5 5 6 5 4 9 0 1 8 4 3 3 6 4 6 6 5 16 7 16 18 17 17 18 20 19
13 12 10 8 8 8 8 8 8 9 11 10 9 5 5 3 11 5 7 4 6 5 10 7 8 3 5 4 3 2 5 8 4 9 5 10 9 9 16 17 17 17 17 17 19
12 12 10 8 7 7 8 8 10 10 7 8 8 3 2 1 14 5 4 11 5 9 6 2 2 3 3 6 6 7 4 5 10 11 9 12 9 9 16 18 19 17 17 16 16
11 11 9 7 6 7 8 5 9 4 14 10 11 13 20 15 1 2 4 11 7 4 3 2 4 7 7 8 1 6 6 8 10 6 13 17 16 10 17 17 19 20 20 19 17
9 9 7 5 5 7 11 6 6 7 9 10 6 15 15 16 4 2 8 7 6 5 5 3 7 6 3 5 6 7 6 10 3 8 14 16 19 11 18 23 25 24 24 22 19
7 7 6 4 4 5 7 11 14 14 3 7 7 5 4 8 6 4 12 7 4 6 6 6 3 8 8 7 8 7 10 9 11 3 7 3 14 14 11 18 23 25 25 25 24
6 6 4 3 5 3 6 14 14 5 2 8 11 4 3 3 1 4 13 5 2 6 5 7 4 9 8 10 13 10 15 15 13 8 12 14 14 18 18 17 21 28 31 30 27
6 4 2 2 4 3 8 14 8 3 3 12 10 6 3 1 6 6 9 7 8 7 6 7 6 7 9 14 14 10 3 12 13 16 8 7 7 12 5 15 23 33 36 32 29
7 5 4 3 3 5 12 13 5 2 5 6 8 9 6 8 7 10 2 2 1 5 6 12 3 5 12 6 14 4 3 4 2 6 9 14 13 13 9 17 22 26 31 32 31
11 9 7 5 3 8 13 6 1 5 7 10 9 8 7 10 9 9 7 7 4 4 7 8 12 6 9 13 8 8 7 8 9 7 13 6 13 16 7 7 9 12 28 31 32
19 15 13 9 9 12 8 4 9 7 6 8 7 5 6 12 6 9 9 7 7 6 3 4 6 5 4 7 6 9 9 10 18 14 14 6 9 6 4 10 11 10 25 32 33
19 20 19 15 13 9 5 7 4 5 9 8 5 5 6 8 9 10 6 9 8 13 6 5 7 5 7 5 3 3 7 5 9 6 10 15 5 4 2 6 5 12 25 30 33
8 15 22 18 14 11 7 5 3 10 6 2 7 8 8 10 11 10 6 7 10 13 11 4 7 7 3 3 2 4 2 5 4 12 19 11 6 2 6 4 5 11 19 27 31
4 5 17 13 14 14 4 4 4 16 12 9 6 4 5 7 5 7 4 6 12 17 11 10 5 9 6 6 7 4 7 2 1 3 7 10 3 1 6 5 7 11 17 25 30
7 4 14 10 8 4 3 3 5 9 14 8 5 6 6 7 5 5 7 6 13 15 9 5 6 10 16 3 3 3 3 3 6 8 4 3 7 2 3 3 8 15 17 25 26
7 5 17 8 4 3 3 4 7 10 9 8 9 6 6 4 5 6 7 15 11 14 12 6 3 8 12 6 3 5 1 2 3 2 10 7 5 3 7 7 11 18 24 23 23
4 2 10 19 7 3 2 5 5 8 5 8 7 6 8 6 3 6 7 7 20 15 5 2 4 8 5 9 11 13 3 5 3 4 7 9 13 3 3 7 10 13 21 29 29
5 4 3 3 8 8 3 3 5 6 7 13 4 9 5 4 8 3 11 17 12 8 8 5 9 14 17 15 3 14 8 8 6 6 6 5 7 9 11 10 12 17 22 23 26
5 5 9 5 2 4 5 3 6 5 3 2 6 9 5 4 6 17 18 15 6 10 6 3 3 10 21 17 14 13 19 3 8 9 6 10 12 16 18 3 14 21 25 26 25
12 10 5 4 2 1 2 2 3 6 2 2 7 6 7 8 16 22 17 13 10 4 4 4 5 4 10 8 11 11 5 4 6 4 4 5 10 16 8 5 11 18 22 24 26
Wind_Direction
314 312 307 306 306 306 308 312 313 309 310 309 311 312 310 306 299 292 286 269 238 209 209 188 189 183 184 194 191 174 187 206 213 202 217 166 158 127 120 126 78 85 124 147 157
320 315 311 307 307 306 307 311 313 311 310 311 311 314 313 313 308 293 268 242 221 204 200 195 196 175 164 184 184 200 211 210 212 203 212 177 176 141 150 139 91 97 123 148 154
326 320 315 315 311 307 304 310 311 312 308 309 312 314 317 323 323 130 125 79 232 197 182 200 195 172 163 170 192 180 220 219 237 210 189 178 156 143 150 175 163 147 140 150 160
327 323 323 317 318 307 307 310 312 311 307 306 308 310 318 324 319 188 239 297 236 188 170 172 178 162 168 183 189 222 233 236 315 203 180 181 152 116 145 111 143 149 156 162 166
333 333 327 321 316 311 308 309 313 311 306 301 302 311 323 304 265 269 301 340 206 185 182 178 173 159 189 181 161 222 223 160 120 163 181 153 150 134 112 124 141 159 162 165 173
337 334 328 321 317 316 310 314 316 311 306 302 310 318 310 273 245 344 106 79 113 177 186 191 197 175 129 145 196 64 135 118 131 148 128 160 129 160 154 148 143 156 165 166 172
339 334 331 327 324 319 319 322 319 315 310 308 310 313 298 282 242 216 89 130 127 169 190 201 146 131 144 134 129 125 131 120 132 149 127 149 178 204 154 157 149 152 162 169 172
339 338 338 333 326 325 331 327 317 313 309 306 309 312 271 312 329 250 236 188 144 161 170 133 196 274 65 122 88 125 130 209 152 177 156 215 218 156 163 164 159 160 160 170 174
338 341 340 333 328 333 333 322 319 319 310 302 305 317 280 139 23 25 214 181 184 143 128 109 149 136 132 136 127 76 203 212 197 197 164 206 224 170 170 176 166 168 169 169 175
335 341 339 334 333 336 340 334 319 310 299 307 289 298 207 164 328 330 179 175 123 146 151 152 101 151 131 187 199 196 216 214 222 191 198 203 233 155 181 184 177 178 177 179 178
331 338 340 334 343 9 25 10 352 322 305 265 282 273 281 290 318 150 175 189 157 165 160 119 197 201 181 196 158 205 227 240 239 195 202 222 235 189 189 193 192 190 190 189 186
327 335 339 339 15 74 48 46 12 322 314 328 307 275 273 255 302 194 170 161 171 184 136 173 236 213 158 184 168 176 204 244 263 188 202 226 242 195 195 208 206 199 199 195 188
328 337 342 357 62 97 29 6 344 326 264 305 328 336 348 180 203 229 177 171 162 176 187 229 234 143 164 167 185 204 212 224 240 145 196 242 249 226 212 220 212 214 209 204 199
341 346 351 34 117 99 10 347 340 337 324 10 10 43 19 92 187 261 193 174 163 222 180 255 235 217 215 215 207 228 218 226 214 204 233 204 245 243 226 215 214 212 207 204 196
1 4 23 142 114 53 350 342 335 337 62 336 7 349 353 353 323 24 196 213 202 179 186 228 201 193 218 236 196 237 182 217 219 224 239 195 240 229 191 223 223 215 209 200 190
38 46 64 99 112 9 345 339 320 262 49 5 342 352 31 22 26 354 3 284 101 179 231 261 216 232 257 229 194 194 197 116 122 233 243 235 229 239 203 224 233 220 204 190 180
53 57 65 72 55 355 337 326 27 44 336 353 345 358 43 9 17 12 1 32 358 296 253 273 259 260 226 254 218 210 209 257 238 214 253 229 223 245 236 273 277 240 194 184 175
65 66 64 62 18 351 354 67 59 341 357 330 335 39 52 14 11 0 8 23 43 5 308 314 306 1 8 245 298 211 220 239 263 263 268 157 235 236 327 311 271 252 184 177 174
72 66 53 32 10 22 77 55 28 333 319 321 311 26 12 12 343 353 31 10 16 9 344 309 278 314 292 299 272 169 226 301 266 254 268 259 212 184 64 33 57 153 168 175 171
71 48 28 19 32 61 70 95 76 3 317 2 32 24 10 3 5 359 18 15 354 5 344 303 281 279 286 290 159 257 48 242 211 263 260 253 263 332 336 343 128 154 171 171 167
75 58 14 24 58 60 69 63 49 14 26 23 10 353 358 350 325 342 347 74 17 360 20 345 284 272 287 261 289 247 238 162 16 254 276 280 268 337 322 308 174 162 171 172 166
64 56 9 39 49 37 51 25 31 4 14 17 32 348 3 347 319 339 5 13 28 5 358 29 296 280 276 235 246 217 259 244 246 232 222 289 261 87 65 122 174 160 168 168 165
82 53 30 57 80 69 45 49 53 19 24 14 15 5 356 348 325 353 348 332 355 357 344 346 328 315 276 205 195 238 110 264 256 209 229 231 254 54 103 177 200 162 157 163 161
113 84 39 59 65 70 85 26 11 18 54 11 27 30 354 334 7 313 320 313 331 332 360 276 266 236 264 310 349 302 1 356 273 220 251 237 286 297 224 206 188 175 167 159 157
66 80 60 27 36 63 70 37 1 7 17 20 41 12 348 300 318 289 317 325 310 352 345 309 277 280 267 241 283 303 342 9 336 326 268 331 307 339 336 271 204 172 165 162 156
98 125 87 71 49 53 24 41 12 338 315 30 2 332 319 271 308 307 315 310 309 330 325 349 274 321 287 280 210 213 257 310 333 346 307 325 295 2 333 214 176 171 166 161 156
85 103 105 20 53 65 41 360 1 340 265 311 329 315 308 315 313 302 282 265 267 297 322 328 328 317 288 324 279 235 2 72 92 60 304 332 340 331 24 96 161 165 163 154 144